Regional Weather Roundup
Issued by NWS Grand Forks, ND

Home | Current Version | Previous Version | Text Only | Print | Product List | Glossary Off
Versions: 1 2 3 4 5 6 7 8 9 10 11 12 13 14 15 16 17 18 19 20 21 22 23 24 25 26 27 28 29 30 31 32 33 34 35 36 37 38 39 40 41 42 43 44 45 46 47 48 49 50

000
ASUS43 KFGF 042031
RWRFGF
PRAIRIE TO PINES  WEATHER ROUNDUP
NATIONAL WEATHER SERVICE EASTERN NORTH DAKOTA/GRAND FORKS ND
300 PM CDT TUE AUG 04 2015

 **SATELLITE DATA USED TO AUGMENT SKY COVER AT AUTOMATED STATIONS**
 *****  WEATHER ACROSS EASTERN NORTH DAKOTA  *****

CITY           SKY/WX    TMP DP  RH WIND       PRES   REMARKS
GRAND FORKS    MOSUNNY   76  54  46 VRB5      30.00F
GRAND FRKS AFB SUNNY     75  53  45 VRB1      30.01F
GRAND FRKS NWS   N/A     75 N/A N/A N5          N/A
DEVILS LAKE    SUNNY     77  48  36 SE6       30.00F
FARGO          SUNNY     80  52  37 N9        29.99S
WAHPETON ARPT  CLEAR     79  43  27 NE8       29.99S
$$

 ***** WEATHER ACROSS CENTRAL AND WESTERN NORTH DAKOTA  *****

CITY           SKY/WX    TMP DP  RH WIND       PRES   REMARKS
BISMARCK       MOSUNNY   85  53  33 S8        29.96F
MINOT          SUNNY     82  48  30 VRB3G18   29.96F
JAMESTOWN      SUNNY     78  52  40 NE6       30.00S
MINOT AFB      SUNNY     82  48  30 SE8       29.96S
GARRISON         N/A     80  55  42 VRB7      29.96F
WILLISTON      SUNNY     86  51  29 SE12      29.93S
DICKINSON      SUNNY     85  54  34 SE15G23   29.94F
HETTINGER      MOSUNNY   85  56  37 SE17      29.97S
$$

 *****  OTHER AIRPORT OBSERVATIONS IN OUR AREA  *****

CITY           SKY/WX    TMP DP  RH WIND       PRES   REMARKS
WALHALLA       FAIR      72  54  53 MISG      30.03F
GRAFTON AIRPOR FAIR      73  54  49 VRB7      30.03S
VALLEY CITY AR MOCLDY    77  54  44 SE8       30.01R
CANDO          FAIR      77  52  41 E5        30.01F
CAVALIER APRT  FAIR      72  54  53 N10       30.03S
GWINNER        FAIR      81  52  36 N3        30.00S
SHEYENNE NWR     N/A     82  51  33 SE2       29.95S
ROLLA            N/A     73  54  49 E8        30.04S
 ***** THE ABOVE OBSERVATIONS ARE NON NWS ARE NOT QUALITY
       CONTROLLED AND MAY MIS-REPORT RAIN FOR SNOW...
$$

  *****  WEATHER ACROSS NORTHERN MINNESOTA  *****

CITY           SKY/WX    TMP DP  RH WIND       PRES   REMARKS
FLAG ISLAND    SUNNY     64  48  55 N5        30.03S
WARROAD        SUNNY     64  55  72 E8        30.05S
ROSEAU         MOSUNNY   70  54  56 CALM      30.03S
HALLOCK        SUNNY     72  50  46 NE3       30.02S
THF RVR FALLS  SUNNY     73  48  40 N7        30.02S
BAUDETTE       MOSUNNY   67  51  56 NE9       30.03S
WASKISH        SUNNY     72  54  53 NW7       30.02S
CROOKSTON      SUNNY     75  54  46 NW9       30.01F
STEPHEN NDAWN    N/A     73  52  46 N7          N/A
GREENBUSH NDAW   N/A     73  52  46 N5          N/A
$$
  *****  WEATHER ACROSS CENTRAL AND WEST MINNESOTA  *****

CITY           SKY/WX    TMP DP  RH WIND       PRES   REMARKS
FOSSTON        SUNNY     75  50  41 N3        30.02S
BEMIDJI        MOSUNNY   73  53  49 N7        30.01S
PARK RAPIDS    SUNNY     78  50  37 NW16      29.99F
ELBOW LAKE     FAIR      78  50  37 N5        30.00S
WADENA         SUNNY     79  48  34 N13G18    29.99F
DETROIT LAKES  SUNNY     75  50  41 N10G17    30.02S
MOORHEAD       SUNNY     75  54  46 N6        30.00S
FERGUS FALLS   SUNNY     79  52  38 N8        29.98F
MORRIS MN      SUNNY     81  52  36 CALM      29.99S
STAPLES        SUNNY     79  46  31 NW10G16   29.98F
$$
  *****  WEATHER ELSEWHERE ACROSS MINNESOTA  *****

CITY           SKY/WX    TMP DP  RH WIND       PRES   REMARKS
DULUTH         MOSUNNY   74  51  44 VRB7      29.99R
INTRNTL FALLS  CLOUDY    65  49  56 N7        30.03S
ELY            CLOUDY    63  48  59 NW7       30.02R
CLOQUET        MOSUNNY   72  48  43 NW7G18    29.98S
WHEATON        SUNNY     77  50  38 E5        30.01R
BRAINERD       MOSUNNY   77  51  40 N10       29.98F
HIBBING        PTSUNNY   69  49  48 NW10      30.00S
ALEXANDRIA     MOSUNNY   79  49  34 NW7       30.01F
SAINT CLOUD    MOSUNNY   80  49  33 W10       29.98S
MINNEAPOLIS    MOSUNNY   80  51  36 NW8       29.97F
$$

  *****  WEATHER ACROSS SOUTH DAKOTA  *****

CITY           SKY/WX    TMP DP  RH WIND       PRES   REMARKS
SIOUX FALLS    CLOUDY    76  62  62 SE5       29.99F
BROOKINGS      PTSUNNY   77  61  57 SE10      30.02F
WATERTOWN      PTSUNNY   79  53  40 SE8       30.00S
HURON          CLOUDY    80  62  54 SE6       29.97R
SISSETON         N/A     80  54  40 NE7       29.98S
ABERDEEN       MOSUNNY   82  56  40 E12       29.98S
MITCHELL       PTSUNNY   79  65  62 SE10      29.98R
PIERRE         PTSUNNY   82  62  50 E16       29.94S
MOBRIDGE       MOSUNNY   85  63  47 S12       29.94S
RAPID CITY     MOSUNNY   80  63  55 S16G23    29.96R
$$

  *****  SOME WEATHER IN NEARBY STATES *****

CITY           SKY/WX    TMP DP  RH WIND       PRES   REMARKS
GLASGOW MT     MOSUNNY   92  53  26 S14       29.83F
GREAT FALLS MT PTSUNNY   83  42  23 NE7       29.94S
CHEYENNE WY    PTSUNNY   74  47  38 W22G36    30.12S
SCOTTSBLUFF NE PTSUNNY   79  56  45 E9        29.99S
OMAHA NE       CLOUDY    74  66  76 SE12      29.94F
DES MOINES IA  CLOUDY    77  58  51 E9        29.96F
DAVENPORT IA   CLOUDY    78  62  57 W8        30.01F
CHICAGO IL     PTSUNNY   81  51  35 NW15G22   29.97S
EAU CLAIRE WI  PTSUNNY   77  52  41 N12       29.97F
LA CROSSE WI   MOSUNNY   81  51  35 NW12      29.98F
$$

  *****  SOME NATIONAL WEATHER *****

CITY           SKY/WX    TMP DP  RH WIND       PRES   REMARKS
LA GUARDIA NY  MOSUNNY   91  52  26 W12G24    29.83S
RALEIGH NC     PTSUNNY   93  70  46 VRB7      29.94F HX  99
ATLANTA GA     MOSUNNY   95  58  28 W8        30.00F HX  94
NEW ORLEANS LA PTSUNNY   89  77  67 S12       29.95F HX 101
OKLAHOMA CITY  PTSUNNY   86  69  56 S17G25    29.93F HX  90
ALBUQUERQUE NM MOSUNNY   89  46  22 W7        30.17F
SALT LAKE CITY MOSUNNY   84  48  28 CALM      30.07F
LOS ANGELES CA MOSUNNY   77  64  64 W13       29.94S
BOISE ID       SUNNY     88  50  27 NW7       29.96F
SEATTLE WA     MOSUNNY   71  54  54 SW12      30.02S
$$

*** WEATHER ACROSS MANITOBA...SASKATCHEWAN AND ONTARIO ***
                ***ONTARIO***

CITY           SKY/WX    TMP DP  RH WIND       PRES   REMARKS
GERALDTON      CLOUDY    59  52  77 NW12G17   29.94R
THUNDER BAY    PTSUNNY   66  52  59 N6        29.97S
SIOUX LOOKOUT  CLOUDY    59  50  72 N5        30.05R
TORONTO        PTSUNNY   79  57  47 W12G22    29.84F
BIG TROUT LK   CLOUDY    61  52  72 NW13G18   29.98R
PICKLE LAKE    LGT RAIN  61  50  67 N6        30.00R
DRYDEN         CLOUDY    61  50  67 N6        30.05R
KENORA         PTSUNNY   63  50  63 NE5       30.05S
$$
                *** MANITOBA***

CITY           SKY/WX    TMP DP  RH WIND       PRES   REMARKS
BRANDON        MOSUNNY   73  54  49 E3        30.02F
DAUPHIN        SUNNY     72  55  56 NE8       30.03S
ISLAND LAKE    CLOUDY    59  54  82 NW7       30.03R
PILOT MOUND      N/A     72  52  49 E5          N/A
THE PAS        PTSUNNY   70  48  46 N5        30.03S
THOMPSON       CLOUDY    59  54  82 NE6       30.06R
WINNIPEG       PTSUNNY   68  54  60 N10       30.04F
LYNN LAKE      PTSUNNY   63  52  67 E3        30.06S
CHURCHILL      PTSUNNY   48  45  87 N6        30.10R
GILLAM         PTSUNNY   55  50  82 N7        30.05S
$$
                ***SASKATCHEWAN***

CITY           SKY/WX    TMP DP  RH WIND       PRES   REMARKS
ESTEVAN        PTSUNNY   82  50  32 SE13G22   29.96S
KINDERSLEY     CLOUDY    77  61  57 S8        29.81R
LLOYDMINSTER   LGT RAIN  68  57  68 SE8G17    29.86R
PRINCE ALBERT  CLOUDY    72  57  60 E12       29.97F
REGINA         PTSUNNY   81  54  39 S14G21    29.94S
YORKTON        SUNNY     75  52  43 SE10      30.00F
N. BATTLEFORD  LGT RAIN  68  57  68 E23G33    29.86F
LA RONGE       CLOUDY    70  52  52 NE8       30.00S
SASKATOON      PTSUNNY   77  57  50 SE18G25   29.92F
SWIFT CURRENT  PTSUNNY   82  61  47 S18G25    29.84S
$$
NOTE: THESE ARE AUTOMATED STATIONS WITH LIMITED QUALITY CONTROL
      "FAIR" INDICATES FEW OR NO CLOUDS BELOW 12,000 FEET WITH NO
      SIGNIFICANT WEATHER AND/OR OBSTRUCTIONS TO VISIBILITY.
      SKY/WX - SKY CONDITION AND SIGNIFICANT WEATHER.
      TMP - AIR TEMPERATURE.    DP   - DEWPOINT TEMPERATURE.
      RH  - RELATIVE HUMIDITY.  PRES - PRESSURE.
      HX  - HEAT INDEX.         WCI  - WIND CHILL INDEX.
$


USA.gov is the U.S. government's official web portal to all federal, state and local government web resources and services.